TimeCDT,TemperatureF,Dew PointF,Humidity,Sea Level PressureIn,VisibilityMPH,Wind Direction,Wind SpeedMPH,Gust SpeedMPH,PrecipitationIn,Events,Conditions,WindDirDegrees,DateUTC
12:53 AM,48.9,41.0,74,30.02,10.0,East,3.5,-,N/A,,Clear,80,2013-04-13 05:53:00
1:53 AM,50.0,43.0,77,30.01,10.0,East,5.8,-,N/A,,Clear,80,2013-04-13 06:53:00
2:53 AM,48.9,39.9,71,30.03,10.0,NNE,4.6,-,N/A,,Clear,30,2013-04-13 07:53:00
3:53 AM,48.9,39.9,71,30.02,10.0,Calm,Calm,-,N/A,,Clear,0,2013-04-13 08:53:00
4:53 AM,51.1,39.9,66,30.05,10.0,North,5.8,-,N/A,,Overcast,350,2013-04-13 09:53:00
5:53 AM,50.0,41.0,71,30.03,10.0,South,6.9,-,N/A,,Overcast,180,2013-04-13 10:53:00
6:53 AM,50.0,41.0,71,30.05,10.0,Variable,4.6,-,0.00,Rain,Light Rain,0,2013-04-13 11:53:00
7:53 AM,51.1,41.0,68,30.07,10.0,East,5.8,-,0.00,,Mostly Cloudy,100,2013-04-13 12:53:00
8:53 AM,53.1,42.1,66,30.09,10.0,ENE,6.9,-,N/A,,Overcast,60,2013-04-13 13:53:00
9:53 AM,55.9,39.0,53,30.07,10.0,East,11.5,-,N/A,,Mostly Cloudy,90,2013-04-13 14:53:00
10:53 AM,60.1,39.9,47,30.06,10.0,East,10.4,-,N/A,,Mostly Cloudy,90,2013-04-13 15:53:00
11:53 AM,61.0,43.0,52,30.04,10.0,NE,12.7,-,N/A,,Mostly Cloudy,40,2013-04-13 16:53:00
12:53 PM,64.0,44.1,48,30.01,10.0,NE,12.7,-,N/A,,Scattered Clouds,50,2013-04-13 17:53:00
1:53 PM,68.0,42.1,39,29.98,10.0,ENE,9.2,-,N/A,,Mostly Cloudy,70,2013-04-13 18:53:00
2:53 PM,68.0,46.9,47,29.94,10.0,NE,15.0,-,N/A,,Clear,50,2013-04-13 19:53:00
3:53 PM,69.1,46.9,45,29.89,10.0,NE,13.8,-,N/A,,Clear,40,2013-04-13 20:53:00
4:53 PM,72.0,46.9,41,29.85,10.0,ENE,12.7,-,N/A,,Clear,70,2013-04-13 21:53:00
5:53 PM,72.0,46.9,41,29.84,10.0,East,11.5,-,N/A,,Clear,80,2013-04-13 22:53:00
6:53 PM,69.8,48.2,46,29.83,10.0,East,5.8,-,N/A,,Clear,80,2013-04-13 23:53:00
7:53 PM,64.9,48.9,56,29.81,10.0,NNE,4.6,-,N/A,,Clear,30,2013-04-14 00:53:00
8:53 PM,63.0,48.9,60,29.82,10.0,NE,4.6,-,N/A,,Clear,40,2013-04-14 01:53:00
9:53 PM,62.1,46.9,58,29.83,10.0,Calm,Calm,-,N/A,,Clear,0,2013-04-14 02:53:00
10:53 PM,57.9,46.9,67,29.83,10.0,NE,6.9,-,N/A,,Clear,40,2013-04-14 03:53:00
11:53 PM,55.9,48.0,75,29.83,10.0,ENE,6.9,-,N/A,,Clear,60,2013-04-14 04:53:00